• Processing (Info)

  • MPEC 2009-M29 : 2009 MG1

    The following Minor Planet Electronic Circular may be linked-to from your own Web pages, but must not otherwise be redistributed electronically.

    A form allowing access to any MPEC is at the bottom of this page.


    Read MPEC 2009-M28 Read MPEC 2009-M30


    M.P.E.C. 2009-M29                                Issued 2009 June 23, 17:57 UT
    
         The Minor Planet Electronic Circulars contain information on unusual
             minor planets and routine data on comets.  They are published
       on behalf of Commission 20 of the International Astronomical Union by the
              Minor Planet Center, Smithsonian Astrophysical Observatory,
                              Cambridge, MA 02138, U.S.A.
    
                 Prepared using the Tamkin Foundation Computer Network
    
                                  MPC@CFA.HARVARD.EDU
              URL http://www.cfa.harvard.edu/iau/mpc.html  ISSN 1523-6714
    
                                       2009 MG1
    
    Observations:
         K09M01G* C2009 06 21.27223 15 56 47.00 -20 31 44.8          19.3 V EM029G96
         K09M01G  C2009 06 21.27881 15 56 52.11 -20 32 36.2          19.2 V EM029G96
         K09M01G  C2009 06 21.28550 15 56 57.30 -20 33 29.1          19.8 V EM029G96
         K09M01G  C2009 06 21.29207 15 57 02.52 -20 34 21.1          19.7 V EM029G96
         K09M01G  C2009 06 21.32309 15 57 26.77 -20 38 22.0          19.5 V EM029G96
         K09M01G  C2009 06 21.32528 15 57 28.50 -20 38 39.3          19.7 V EM029G96
         K09M01G  C2009 06 23.23654 16 19 28.95 -23 58 44.5          19.4 V EM029G96
         K09M01G  C2009 06 23.23929 16 19 30.57 -23 58 59.5          19.6 V EM029G96
         K09M01G  C2009 06 23.24212 16 19 32.12 -23 59 13.4          20.8 V EM029G96
         K09M01G  C2009 06 23.24490 16 19 33.67 -23 59 27.2          20.0 V EM029G96
         K09M01G  C2009 06 23.26041 16 19 42.08 -24 00 42.3          20.2 R EM029651
         K09M01G  C2009 06 23.26412 16 19 44.10 -24 01 00.7          20.3 R EM029651
         K09M01G  C2009 06 23.26784 16 19 46.14 -24 01 19.2          20.2 R EM029651
    
    Observer details:
    651 Grasslands Observatory, Tucson.  Observer J. E. McGaha.  0.62-m f/5.1
        reflector + CCD.
    G96 Mt. Lemmon Survey.  Observers A. Boattini, R. A. Kowalski.  Measurers
        E. C. Beshore, A. Boattini, G. J. Garradd, A. R. Gibbs, A. D. Grauer,
        R. E. Hill, R. A. Kowalski, S. M. Larson, R. H. McNaught.  1.5-m reflector
        + CCD.
    
    Orbital elements:
    2009 MG1                                                 Earth MOID = 0.0157 AU
    Epoch 2009 June 18.0 TT = JDT 2455000.5                 MPC
    M  15.23136              (2000.0)            P               Q
    n   0.31050032     Peri.  102.10905     -0.97766417     +0.17065709
    a   2.1598720      Node    87.80918     -0.20603507     -0.89347045
    e   0.6535287      Incl.    7.05164     +0.04150085     -0.41543556
    P   3.17           H   23.8           G   0.15           U   8
    Residuals in seconds of arc
    090621 G96  0.8+  0.2+    090621 G96  0.1+  0.5-    090623 651  0.1+  0.6+
    090621 G96  0.1+  0.6+    090623 G96  1.4-  0.6+    090623 651  0.1+  0.5+
    090621 G96  0.6-  0.2+    090623 G96  0.2+  0.6-    090623 651  0.2+  0.3+
    090621 G96  0.4+  0.3-    090623 G96  0.2+  0.5-
    090621 G96  0.1-  0.1-    090623 G96  0.6+  0.4-
    
    Ephemeris:
    2009 MG1                 a,e,i = 2.16, 0.65, 7                   q = 0.7483
    Date    TT    R. A. (2000) Decl.     Delta      r     Elong.  Phase     V
    2009 06 18    14 53.34   -08 58.7    0.0550   1.056   136.3    41.6    19.2
    2009 06 23    16 17.14   -23 37.2    0.0978   1.106   154.9    22.9    20.1
    2009 06 28    16 52.51   -28 13.0    0.149    1.156   158.1    19.2    20.9
    2009 07 03    17 11.72   -30 10.7    0.203    1.206   157.3    19.0    21.7
    2009 07 08    17 24.18   -31 09.7    0.259    1.257   155.2    19.9    22.4
    
    Sonia Keys                   (C) Copyright 2009 MPC           M.P.E.C. 2009-M29
    

    Read MPEC 2009-M28 Read MPEC 2009-M30


    MPEC number:

    Enter an MPEC number in one of the following forms:

    • 1997-B01 (the full form)
    • J97B01 (the packed version of the full form)
    • B01 (the abbreviated form)